Index of /20260429/WXO-DD/model_gdps/15km/12/102
Name Last modified Size Description
Parent Directory -
20260429T12Z_MSC_GDPS_AbsoluteVorticity_IsbL-0200_LatLon0.15_PT102H.grib2 2026-04-29 16:31 1.5M
20260429T12Z_MSC_GDPS_AbsoluteVorticity_IsbL-0250_LatLon0.15_PT102H.grib2 2026-04-29 16:31 1.3M
20260429T12Z_MSC_GDPS_AbsoluteVorticity_IsbL-0500_LatLon0.15_PT102H.grib2 2026-04-29 16:31 1.5M
20260429T12Z_MSC_GDPS_AbsoluteVorticity_IsbL-0700_LatLon0.15_PT102H.grib2 2026-04-29 16:31 1.3M
20260429T12Z_MSC_GDPS_AbsoluteVorticity_IsbL-0850_LatLon0.15_PT102H.grib2 2026-04-29 16:31 1.6M
20260429T12Z_MSC_GDPS_AirTemp-Max_AGL-2m_LatLon0.15_PT102H.grib2 2026-04-29 16:31 744K
20260429T12Z_MSC_GDPS_AirTemp-Min_AGL-2m_LatLon0.15_PT102H.grib2 2026-04-29 16:31 790K
20260429T12Z_MSC_GDPS_AirTemp_AGL-120m_LatLon0.15_PT102H.grib2 2026-04-29 16:31 908K
20260429T12Z_MSC_GDPS_AirTemp_AGL-2m_LatLon0.15_PT102H.grib2 2026-04-29 16:31 1.0M
20260429T12Z_MSC_GDPS_AirTemp_AGL-40m_LatLon0.15_PT102H.grib2 2026-04-29 16:31 814K
20260429T12Z_MSC_GDPS_AirTemp_AGL-80m_LatLon0.15_PT102H.grib2 2026-04-29 16:31 800K
20260429T12Z_MSC_GDPS_AirTemp_IsbL-0001_LatLon0.15_PT102H.grib2 2026-04-29 16:31 654K
20260429T12Z_MSC_GDPS_AirTemp_IsbL-0005_LatLon0.15_PT102H.grib2 2026-04-29 16:31 689K
20260429T12Z_MSC_GDPS_AirTemp_IsbL-0010_LatLon0.15_PT102H.grib2 2026-04-29 16:31 699K
20260429T12Z_MSC_GDPS_AirTemp_IsbL-0020_LatLon0.15_PT102H.grib2 2026-04-29 16:31 793K
20260429T12Z_MSC_GDPS_AirTemp_IsbL-0030_LatLon0.15_PT102H.grib2 2026-04-29 16:31 844K
20260429T12Z_MSC_GDPS_AirTemp_IsbL-0050_LatLon0.15_PT102H.grib2 2026-04-29 16:31 818K
20260429T12Z_MSC_GDPS_AirTemp_IsbL-0100_LatLon0.15_PT102H.grib2 2026-04-29 16:31 1.0M
20260429T12Z_MSC_GDPS_AirTemp_IsbL-0150_LatLon0.15_PT102H.grib2 2026-04-29 16:31 1.0M
20260429T12Z_MSC_GDPS_AirTemp_IsbL-0175_LatLon0.15_PT102H.grib2 2026-04-29 16:31 970K
20260429T12Z_MSC_GDPS_AirTemp_IsbL-0200_LatLon0.15_PT102H.grib2 2026-04-29 16:31 1.0M
20260429T12Z_MSC_GDPS_AirTemp_IsbL-0225_LatLon0.15_PT102H.grib2 2026-04-29 16:31 1.0M
20260429T12Z_MSC_GDPS_AirTemp_IsbL-0250_LatLon0.15_PT102H.grib2 2026-04-29 16:31 1.0M
20260429T12Z_MSC_GDPS_AirTemp_IsbL-0275_LatLon0.15_PT102H.grib2 2026-04-29 16:31 1.0M
20260429T12Z_MSC_GDPS_AirTemp_IsbL-0300_LatLon0.15_PT102H.grib2 2026-04-29 16:31 952K
20260429T12Z_MSC_GDPS_AirTemp_IsbL-0350_LatLon0.15_PT102H.grib2 2026-04-29 16:31 933K
20260429T12Z_MSC_GDPS_AirTemp_IsbL-0400_LatLon0.15_PT102H.grib2 2026-04-29 16:31 948K
20260429T12Z_MSC_GDPS_AirTemp_IsbL-0450_LatLon0.15_PT102H.grib2 2026-04-29 16:31 750K
20260429T12Z_MSC_GDPS_AirTemp_IsbL-0500_LatLon0.15_PT102H.grib2 2026-04-29 16:31 1.0M
20260429T12Z_MSC_GDPS_AirTemp_IsbL-0550_LatLon0.15_PT102H.grib2 2026-04-29 16:31 812K
20260429T12Z_MSC_GDPS_AirTemp_IsbL-0600_LatLon0.15_PT102H.grib2 2026-04-29 16:31 899K
20260429T12Z_MSC_GDPS_AirTemp_IsbL-0650_LatLon0.15_PT102H.grib2 2026-04-29 16:31 923K
20260429T12Z_MSC_GDPS_AirTemp_IsbL-0700_LatLon0.15_PT102H.grib2 2026-04-29 16:31 962K
20260429T12Z_MSC_GDPS_AirTemp_IsbL-0750_LatLon0.15_PT102H.grib2 2026-04-29 16:31 1.0M
20260429T12Z_MSC_GDPS_AirTemp_IsbL-0800_LatLon0.15_PT102H.grib2 2026-04-29 16:31 1.1M
20260429T12Z_MSC_GDPS_AirTemp_IsbL-0850_LatLon0.15_PT102H.grib2 2026-04-29 16:31 1.1M
20260429T12Z_MSC_GDPS_AirTemp_IsbL-0875_LatLon0.15_PT102H.grib2 2026-04-29 16:31 1.2M
20260429T12Z_MSC_GDPS_AirTemp_IsbL-0900_LatLon0.15_PT102H.grib2 2026-04-29 16:31 1.1M
20260429T12Z_MSC_GDPS_AirTemp_IsbL-0925_LatLon0.15_PT102H.grib2 2026-04-29 16:31 1.1M
20260429T12Z_MSC_GDPS_AirTemp_IsbL-0950_LatLon0.15_PT102H.grib2 2026-04-29 16:31 1.1M
20260429T12Z_MSC_GDPS_AirTemp_IsbL-0970_LatLon0.15_PT102H.grib2 2026-04-29 16:31 1.1M
20260429T12Z_MSC_GDPS_AirTemp_IsbL-0985_LatLon0.15_PT102H.grib2 2026-04-29 16:31 1.1M
20260429T12Z_MSC_GDPS_AirTemp_IsbL-1000_LatLon0.15_PT102H.grib2 2026-04-29 16:31 1.1M
20260429T12Z_MSC_GDPS_AirTemp_IsbL-1015_LatLon0.15_PT102H.grib2 2026-04-29 16:31 1.1M
20260429T12Z_MSC_GDPS_Albedo_Sfc_LatLon0.15_PT102H.grib2 2026-04-29 16:31 246K
20260429T12Z_MSC_GDPS_CAPE_Sfc_LatLon0.15_PT102H.grib2 2026-04-29 16:31 3.8M
20260429T12Z_MSC_GDPS_CIN_Sfc_LatLon0.15_PT102H.grib2 2026-04-29 16:31 2.8M
20260429T12Z_MSC_GDPS_CloudWater_EAtm_LatLon0.15_PT102H.grib2 2026-04-29 16:31 536K
20260429T12Z_MSC_GDPS_ConvectivePrecip-Accum_Sfc_LatLon0.15_PT102H.grib2 2026-04-29 16:31 3.4M
20260429T12Z_MSC_GDPS_DewPointDepression_AGL-2m_LatLon0.15_PT102H.grib2 2026-04-29 16:31 768K
20260429T12Z_MSC_GDPS_DewPointDepression_IsbL-0010_LatLon0.15_PT102H.grib2 2026-04-29 16:31 65K
20260429T12Z_MSC_GDPS_DewPointDepression_IsbL-0020_LatLon0.15_PT102H.grib2 2026-04-29 16:31 70K
20260429T12Z_MSC_GDPS_DewPointDepression_IsbL-0030_LatLon0.15_PT102H.grib2 2026-04-29 16:31 86K
20260429T12Z_MSC_GDPS_DewPointDepression_IsbL-0050_LatLon0.15_PT102H.grib2 2026-04-29 16:31 378K
20260429T12Z_MSC_GDPS_DewPointDepression_IsbL-0100_LatLon0.15_PT102H.grib2 2026-04-29 16:31 407K
20260429T12Z_MSC_GDPS_DewPointDepression_IsbL-0150_LatLon0.15_PT102H.grib2 2026-04-29 16:31 471K
20260429T12Z_MSC_GDPS_DewPointDepression_IsbL-0175_LatLon0.15_PT102H.grib2 2026-04-29 16:31 586K
20260429T12Z_MSC_GDPS_DewPointDepression_IsbL-0200_LatLon0.15_PT102H.grib2 2026-04-29 16:31 694K
20260429T12Z_MSC_GDPS_DewPointDepression_IsbL-0225_LatLon0.15_PT102H.grib2 2026-04-29 16:31 785K
20260429T12Z_MSC_GDPS_DewPointDepression_IsbL-0250_LatLon0.15_PT102H.grib2 2026-04-29 16:31 871K
20260429T12Z_MSC_GDPS_DewPointDepression_IsbL-0275_LatLon0.15_PT102H.grib2 2026-04-29 16:31 884K
20260429T12Z_MSC_GDPS_DewPointDepression_IsbL-0300_LatLon0.15_PT102H.grib2 2026-04-29 16:31 923K
20260429T12Z_MSC_GDPS_DewPointDepression_IsbL-0350_LatLon0.15_PT102H.grib2 2026-04-29 16:31 958K
20260429T12Z_MSC_GDPS_DewPointDepression_IsbL-0400_LatLon0.15_PT102H.grib2 2026-04-29 16:31 1.0M
20260429T12Z_MSC_GDPS_DewPointDepression_IsbL-0450_LatLon0.15_PT102H.grib2 2026-04-29 16:31 1.0M
20260429T12Z_MSC_GDPS_DewPointDepression_IsbL-0500_LatLon0.15_PT102H.grib2 2026-04-29 16:31 1.0M
20260429T12Z_MSC_GDPS_DewPointDepression_IsbL-0550_LatLon0.15_PT102H.grib2 2026-04-29 16:31 1.0M
20260429T12Z_MSC_GDPS_DewPointDepression_IsbL-0600_LatLon0.15_PT102H.grib2 2026-04-29 16:31 1.1M
20260429T12Z_MSC_GDPS_DewPointDepression_IsbL-0650_LatLon0.15_PT102H.grib2 2026-04-29 16:31 1.1M
20260429T12Z_MSC_GDPS_DewPointDepression_IsbL-0700_LatLon0.15_PT102H.grib2 2026-04-29 16:31 1.1M
20260429T12Z_MSC_GDPS_DewPointDepression_IsbL-0750_LatLon0.15_PT102H.grib2 2026-04-29 16:31 1.1M
20260429T12Z_MSC_GDPS_DewPointDepression_IsbL-0800_LatLon0.15_PT102H.grib2 2026-04-29 16:31 1.2M
20260429T12Z_MSC_GDPS_DewPointDepression_IsbL-0850_LatLon0.15_PT102H.grib2 2026-04-29 16:31 1.2M
20260429T12Z_MSC_GDPS_DewPointDepression_IsbL-0875_LatLon0.15_PT102H.grib2 2026-04-29 16:31 1.1M
20260429T12Z_MSC_GDPS_DewPointDepression_IsbL-0900_LatLon0.15_PT102H.grib2 2026-04-29 16:31 1.1M
20260429T12Z_MSC_GDPS_DewPointDepression_IsbL-0925_LatLon0.15_PT102H.grib2 2026-04-29 16:31 1.0M
20260429T12Z_MSC_GDPS_DewPointDepression_IsbL-0950_LatLon0.15_PT102H.grib2 2026-04-29 16:31 1.0M
20260429T12Z_MSC_GDPS_DewPointDepression_IsbL-0970_LatLon0.15_PT102H.grib2 2026-04-29 16:31 1.0M
20260429T12Z_MSC_GDPS_DewPointDepression_IsbL-0985_LatLon0.15_PT102H.grib2 2026-04-29 16:31 1.0M
20260429T12Z_MSC_GDPS_DewPointDepression_IsbL-1000_LatLon0.15_PT102H.grib2 2026-04-29 16:31 1.0M
20260429T12Z_MSC_GDPS_DewPointDepression_IsbL-1015_LatLon0.15_PT102H.grib2 2026-04-29 16:31 922K
20260429T12Z_MSC_GDPS_DewPoint_AGL-2m_LatLon0.15_PT102H.grib2 2026-04-29 16:31 612K
20260429T12Z_MSC_GDPS_DownwardLongwaveRadiationFlux-Accum_Sfc_LatLon0.15_PT102H.grib2 2026-04-29 16:31 770K
20260429T12Z_MSC_GDPS_DownwardShortwaveRadiationFlux-Accum_NTAtm_LatLon0.15_PT102H.grib2 2026-04-29 16:31 279K
20260429T12Z_MSC_GDPS_DownwardShortwaveRadiationFlux-Accum_Sfc_LatLon0.15_PT102H.grib2 2026-04-29 16:31 973K
20260429T12Z_MSC_GDPS_FreezingRain-Accum12h_Sfc_LatLon0.15_PT102H.grib2 2026-04-29 16:31 107K
20260429T12Z_MSC_GDPS_FreezingRain-Accum1h_Sfc_LatLon0.15_PT102H.grib2 2026-04-29 16:31 32K
20260429T12Z_MSC_GDPS_FreezingRain-Accum24h_Sfc_LatLon0.15_PT102H.grib2 2026-04-29 16:31 149K
20260429T12Z_MSC_GDPS_FreezingRain-Accum3h_Sfc_LatLon0.15_PT102H.grib2 2026-04-29 16:31 40K
20260429T12Z_MSC_GDPS_FreezingRain-Accum6h_Sfc_LatLon0.15_PT102H.grib2 2026-04-29 16:31 80K
20260429T12Z_MSC_GDPS_FreezingRain-Accum_Sfc_LatLon0.15_PT102H.grib2 2026-04-29 16:31 376K
20260429T12Z_MSC_GDPS_GeopotentialHeight_IsbL-0001_LatLon0.15_PT102H.grib2 2026-04-29 16:31 420K
20260429T12Z_MSC_GDPS_GeopotentialHeight_IsbL-0005_LatLon0.15_PT102H.grib2 2026-04-29 16:31 498K
20260429T12Z_MSC_GDPS_GeopotentialHeight_IsbL-0010_LatLon0.15_PT102H.grib2 2026-04-29 16:31 491K
20260429T12Z_MSC_GDPS_GeopotentialHeight_IsbL-0020_LatLon0.15_PT102H.grib2 2026-04-29 16:31 416K
20260429T12Z_MSC_GDPS_GeopotentialHeight_IsbL-0030_LatLon0.15_PT102H.grib2 2026-04-29 16:31 575K
20260429T12Z_MSC_GDPS_GeopotentialHeight_IsbL-0050_LatLon0.15_PT102H.grib2 2026-04-29 16:31 574K
20260429T12Z_MSC_GDPS_GeopotentialHeight_IsbL-0100_LatLon0.15_PT102H.grib2 2026-04-29 16:31 609K
20260429T12Z_MSC_GDPS_GeopotentialHeight_IsbL-0150_LatLon0.15_PT102H.grib2 2026-04-29 16:31 628K
20260429T12Z_MSC_GDPS_GeopotentialHeight_IsbL-0175_LatLon0.15_PT102H.grib2 2026-04-29 16:31 630K
20260429T12Z_MSC_GDPS_GeopotentialHeight_IsbL-0200_LatLon0.15_PT102H.grib2 2026-04-29 16:31 634K
20260429T12Z_MSC_GDPS_GeopotentialHeight_IsbL-0225_LatLon0.15_PT102H.grib2 2026-04-29 16:31 640K
20260429T12Z_MSC_GDPS_GeopotentialHeight_IsbL-0250_LatLon0.15_PT102H.grib2 2026-04-29 16:31 644K
20260429T12Z_MSC_GDPS_GeopotentialHeight_IsbL-0275_LatLon0.15_PT102H.grib2 2026-04-29 16:31 643K
20260429T12Z_MSC_GDPS_GeopotentialHeight_IsbL-0300_LatLon0.15_PT102H.grib2 2026-04-29 16:31 635K
20260429T12Z_MSC_GDPS_GeopotentialHeight_IsbL-0350_LatLon0.15_PT102H.grib2 2026-04-29 16:31 631K
20260429T12Z_MSC_GDPS_GeopotentialHeight_IsbL-0400_LatLon0.15_PT102H.grib2 2026-04-29 16:31 621K
20260429T12Z_MSC_GDPS_GeopotentialHeight_IsbL-0450_LatLon0.15_PT102H.grib2 2026-04-29 16:31 611K
20260429T12Z_MSC_GDPS_GeopotentialHeight_IsbL-0500_LatLon0.15_PT102H.grib2 2026-04-29 16:31 603K
20260429T12Z_MSC_GDPS_GeopotentialHeight_IsbL-0550_LatLon0.15_PT102H.grib2 2026-04-29 16:31 528K
20260429T12Z_MSC_GDPS_GeopotentialHeight_IsbL-0600_LatLon0.15_PT102H.grib2 2026-04-29 16:31 523K
20260429T12Z_MSC_GDPS_GeopotentialHeight_IsbL-0650_LatLon0.15_PT102H.grib2 2026-04-29 16:31 690K
20260429T12Z_MSC_GDPS_GeopotentialHeight_IsbL-0700_LatLon0.15_PT102H.grib2 2026-04-29 16:31 692K
20260429T12Z_MSC_GDPS_GeopotentialHeight_IsbL-0750_LatLon0.15_PT102H.grib2 2026-04-29 16:31 692K
20260429T12Z_MSC_GDPS_GeopotentialHeight_IsbL-0800_LatLon0.15_PT102H.grib2 2026-04-29 16:31 705K
20260429T12Z_MSC_GDPS_GeopotentialHeight_IsbL-0850_LatLon0.15_PT102H.grib2 2026-04-29 16:31 711K
20260429T12Z_MSC_GDPS_GeopotentialHeight_IsbL-0875_LatLon0.15_PT102H.grib2 2026-04-29 16:31 717K
20260429T12Z_MSC_GDPS_GeopotentialHeight_IsbL-0900_LatLon0.15_PT102H.grib2 2026-04-29 16:31 730K
20260429T12Z_MSC_GDPS_GeopotentialHeight_IsbL-0925_LatLon0.15_PT102H.grib2 2026-04-29 16:31 734K
20260429T12Z_MSC_GDPS_GeopotentialHeight_IsbL-0950_LatLon0.15_PT102H.grib2 2026-04-29 16:31 741K
20260429T12Z_MSC_GDPS_GeopotentialHeight_IsbL-0970_LatLon0.15_PT102H.grib2 2026-04-29 16:31 753K
20260429T12Z_MSC_GDPS_GeopotentialHeight_IsbL-0985_LatLon0.15_PT102H.grib2 2026-04-29 16:31 769K
20260429T12Z_MSC_GDPS_GeopotentialHeight_IsbL-1000_LatLon0.15_PT102H.grib2 2026-04-29 16:31 789K
20260429T12Z_MSC_GDPS_GeopotentialHeight_IsbL-1015_LatLon0.15_PT102H.grib2 2026-04-29 16:31 811K
20260429T12Z_MSC_GDPS_Humidex_Sfc_LatLon0.15_PT102H.grib2 2026-04-29 16:31 5.3M
20260429T12Z_MSC_GDPS_IcePellets-Accum12h_Sfc_LatLon0.15_PT102H.grib2 2026-04-29 16:31 10K
20260429T12Z_MSC_GDPS_IcePellets-Accum1h_Sfc_LatLon0.15_PT102H.grib2 2026-04-29 16:31 3.9K
20260429T12Z_MSC_GDPS_IcePellets-Accum24h_Sfc_LatLon0.15_PT102H.grib2 2026-04-29 16:31 15K
20260429T12Z_MSC_GDPS_IcePellets-Accum3h_Sfc_LatLon0.15_PT102H.grib2 2026-04-29 16:31 4.8K
20260429T12Z_MSC_GDPS_IcePellets-Accum6h_Sfc_LatLon0.15_PT102H.grib2 2026-04-29 16:31 6.6K
20260429T12Z_MSC_GDPS_IcePellets-Accum_Sfc_LatLon0.15_PT102H.grib2 2026-04-29 16:31 63K
20260429T12Z_MSC_GDPS_KIndex_Sfc_LatLon0.15_PT102H.grib2 2026-04-29 16:31 6.5M
20260429T12Z_MSC_GDPS_LatentHeatNetFlux_Sfc_LatLon0.15_PT102H.grib2 2026-04-29 16:31 522K
20260429T12Z_MSC_GDPS_LiftedIndex-MU-VT_IsbL-0500_LatLon0.15_PT102H.grib2 2026-04-29 16:31 5.4M
20260429T12Z_MSC_GDPS_NetLongwaveRadiationFlux-Accum_Sfc_LatLon0.15_PT102H.grib2 2026-04-29 16:31 1.0M
20260429T12Z_MSC_GDPS_NetShortwaveRadiationFlux-Accum_Sfc_LatLon0.15_PT102H.grib2 2026-04-29 16:31 942K
20260429T12Z_MSC_GDPS_O3MixingRatio_Sfc_LatLon0.15_PT102H.grib2 2026-04-29 16:51 1.9M
20260429T12Z_MSC_GDPS_O3_EAtm_LatLon0.15_PT102H.grib2 2026-04-29 16:51 2.4M
20260429T12Z_MSC_GDPS_PlanetaryBoundaryLayerHeight_Sfc_LatLon0.15_PT102H.grib2 2026-04-29 16:31 2.4M
20260429T12Z_MSC_GDPS_Precip-Accum12h_Sfc_LatLon0.15_PT102H.grib2 2026-04-29 16:31 4.0M
20260429T12Z_MSC_GDPS_Precip-Accum1h_Sfc_LatLon0.15_PT102H.grib2 2026-04-29 16:31 3.2M
20260429T12Z_MSC_GDPS_Precip-Accum24h_Sfc_LatLon0.15_PT102H.grib2 2026-04-29 16:31 4.5M
20260429T12Z_MSC_GDPS_Precip-Accum3h_Sfc_LatLon0.15_PT102H.grib2 2026-04-29 16:31 3.4M
20260429T12Z_MSC_GDPS_Precip-Accum6h_Sfc_LatLon0.15_PT102H.grib2 2026-04-29 16:31 3.5M
20260429T12Z_MSC_GDPS_Precip-Accum_Sfc_LatLon0.15_PT102H.grib2 2026-04-29 16:31 5.1M
20260429T12Z_MSC_GDPS_PrecipRate_Sfc_LatLon0.15_PT102H.grib2 2026-04-29 16:31 3.1M
20260429T12Z_MSC_GDPS_PrecipType-Instant_Sfc_LatLon0.15_PT102H.grib2 2026-04-29 16:31 1.6M
20260429T12Z_MSC_GDPS_Pressure_MSL_LatLon0.15_PT102H.grib2 2026-04-29 16:31 827K
20260429T12Z_MSC_GDPS_Pressure_PVU-1.5_LatLon0.15_PT102H.grib2 2026-04-29 16:31 5.8M
20260429T12Z_MSC_GDPS_Pressure_PVU-1_LatLon0.15_PT102H.grib2 2026-04-29 16:31 6.0M
20260429T12Z_MSC_GDPS_Pressure_PVU-2_LatLon0.15_PT102H.grib2 2026-04-29 16:31 5.6M
20260429T12Z_MSC_GDPS_Pressure_Sfc_LatLon0.15_PT102H.grib2 2026-04-29 16:31 1.1M
20260429T12Z_MSC_GDPS_RadiativeTemp_Sfc_LatLon0.15_PT102H.grib2 2026-04-29 16:31 493K
20260429T12Z_MSC_GDPS_Rain-Accum12h_Sfc_LatLon0.15_PT102H.grib2 2026-04-29 16:31 2.7M
20260429T12Z_MSC_GDPS_Rain-Accum1h_Sfc_LatLon0.15_PT102H.grib2 2026-04-29 16:31 1.6M
20260429T12Z_MSC_GDPS_Rain-Accum24h_Sfc_LatLon0.15_PT102H.grib2 2026-04-29 16:31 3.1M
20260429T12Z_MSC_GDPS_Rain-Accum3h_Sfc_LatLon0.15_PT102H.grib2 2026-04-29 16:31 1.7M
20260429T12Z_MSC_GDPS_Rain-Accum6h_Sfc_LatLon0.15_PT102H.grib2 2026-04-29 16:31 2.3M
20260429T12Z_MSC_GDPS_Rain-Accum_Sfc_LatLon0.15_PT102H.grib2 2026-04-29 16:31 3.9M
20260429T12Z_MSC_GDPS_RelativeHumidity_AGL-2m_LatLon0.15_PT102H.grib2 2026-04-29 16:31 1.1M
20260429T12Z_MSC_GDPS_RelativeHumidity_IsbL-0010_LatLon0.15_PT102H.grib2 2026-04-29 16:31 128K
20260429T12Z_MSC_GDPS_RelativeHumidity_IsbL-0020_LatLon0.15_PT102H.grib2 2026-04-29 16:31 165K
20260429T12Z_MSC_GDPS_RelativeHumidity_IsbL-0030_LatLon0.15_PT102H.grib2 2026-04-29 16:31 269K
20260429T12Z_MSC_GDPS_RelativeHumidity_IsbL-0050_LatLon0.15_PT102H.grib2 2026-04-29 16:31 428K
20260429T12Z_MSC_GDPS_RelativeHumidity_IsbL-0100_LatLon0.15_PT102H.grib2 2026-04-29 16:31 510K
20260429T12Z_MSC_GDPS_RelativeHumidity_IsbL-0150_LatLon0.15_PT102H.grib2 2026-04-29 16:31 665K
20260429T12Z_MSC_GDPS_RelativeHumidity_IsbL-0175_LatLon0.15_PT102H.grib2 2026-04-29 16:31 791K
20260429T12Z_MSC_GDPS_RelativeHumidity_IsbL-0200_LatLon0.15_PT102H.grib2 2026-04-29 16:31 715K
20260429T12Z_MSC_GDPS_RelativeHumidity_IsbL-0225_LatLon0.15_PT102H.grib2 2026-04-29 16:31 800K
20260429T12Z_MSC_GDPS_RelativeHumidity_IsbL-0250_LatLon0.15_PT102H.grib2 2026-04-29 16:31 874K
20260429T12Z_MSC_GDPS_RelativeHumidity_IsbL-0275_LatLon0.15_PT102H.grib2 2026-04-29 16:31 893K
20260429T12Z_MSC_GDPS_RelativeHumidity_IsbL-0300_LatLon0.15_PT102H.grib2 2026-04-29 16:31 934K
20260429T12Z_MSC_GDPS_RelativeHumidity_IsbL-0350_LatLon0.15_PT102H.grib2 2026-04-29 16:31 957K
20260429T12Z_MSC_GDPS_RelativeHumidity_IsbL-0400_LatLon0.15_PT102H.grib2 2026-04-29 16:31 1.0M
20260429T12Z_MSC_GDPS_RelativeHumidity_IsbL-0450_LatLon0.15_PT102H.grib2 2026-04-29 16:31 1.0M
20260429T12Z_MSC_GDPS_RelativeHumidity_IsbL-0500_LatLon0.15_PT102H.grib2 2026-04-29 16:31 1.0M
20260429T12Z_MSC_GDPS_RelativeHumidity_IsbL-0550_LatLon0.15_PT102H.grib2 2026-04-29 16:31 1.0M
20260429T12Z_MSC_GDPS_RelativeHumidity_IsbL-0600_LatLon0.15_PT102H.grib2 2026-04-29 16:31 1.0M
20260429T12Z_MSC_GDPS_RelativeHumidity_IsbL-0650_LatLon0.15_PT102H.grib2 2026-04-29 16:31 1.1M
20260429T12Z_MSC_GDPS_RelativeHumidity_IsbL-0700_LatLon0.15_PT102H.grib2 2026-04-29 16:31 1.1M
20260429T12Z_MSC_GDPS_RelativeHumidity_IsbL-0750_LatLon0.15_PT102H.grib2 2026-04-29 16:31 1.2M
20260429T12Z_MSC_GDPS_RelativeHumidity_IsbL-0800_LatLon0.15_PT102H.grib2 2026-04-29 16:31 1.3M
20260429T12Z_MSC_GDPS_RelativeHumidity_IsbL-0850_LatLon0.15_PT102H.grib2 2026-04-29 16:31 1.3M
20260429T12Z_MSC_GDPS_RelativeHumidity_IsbL-0875_LatLon0.15_PT102H.grib2 2026-04-29 16:31 1.3M
20260429T12Z_MSC_GDPS_RelativeHumidity_IsbL-0900_LatLon0.15_PT102H.grib2 2026-04-29 16:31 1.2M
20260429T12Z_MSC_GDPS_RelativeHumidity_IsbL-0925_LatLon0.15_PT102H.grib2 2026-04-29 16:31 1.2M
20260429T12Z_MSC_GDPS_RelativeHumidity_IsbL-0950_LatLon0.15_PT102H.grib2 2026-04-29 16:31 1.2M
20260429T12Z_MSC_GDPS_RelativeHumidity_IsbL-0970_LatLon0.15_PT102H.grib2 2026-04-29 16:31 1.2M
20260429T12Z_MSC_GDPS_RelativeHumidity_IsbL-0985_LatLon0.15_PT102H.grib2 2026-04-29 16:31 1.2M
20260429T12Z_MSC_GDPS_RelativeHumidity_IsbL-1000_LatLon0.15_PT102H.grib2 2026-04-29 16:31 1.1M
20260429T12Z_MSC_GDPS_RelativeHumidity_IsbL-1015_LatLon0.15_PT102H.grib2 2026-04-29 16:31 1.1M
20260429T12Z_MSC_GDPS_RelativeVorticity_IsbL-0200_LatLon0.15_PT102H.grib2 2026-04-29 16:31 1.5M
20260429T12Z_MSC_GDPS_RelativeVorticity_IsbL-0250_LatLon0.15_PT102H.grib2 2026-04-29 16:31 1.3M
20260429T12Z_MSC_GDPS_RelativeVorticity_IsbL-0500_LatLon0.15_PT102H.grib2 2026-04-29 16:31 1.5M
20260429T12Z_MSC_GDPS_RelativeVorticity_IsbL-0700_LatLon0.15_PT102H.grib2 2026-04-29 16:31 1.3M
20260429T12Z_MSC_GDPS_RelativeVorticity_IsbL-0850_LatLon0.15_PT102H.grib2 2026-04-29 16:31 1.6M
20260429T12Z_MSC_GDPS_Runoff-Accum_Sfc_LatLon0.15_PT102H.grib2 2026-04-29 16:31 132K
20260429T12Z_MSC_GDPS_SensibleHeatNetFlux_Sfc_LatLon0.15_PT102H.grib2 2026-04-29 16:31 635K
20260429T12Z_MSC_GDPS_ShowalterIndex_IsbL-0500_LatLon0.15_PT102H.grib2 2026-04-29 16:31 6.2M
20260429T12Z_MSC_GDPS_Snow-Accum12h_Sfc_LatLon0.15_PT102H.grib2 2026-04-29 16:31 1.4M
20260429T12Z_MSC_GDPS_Snow-Accum1h_Sfc_LatLon0.15_PT102H.grib2 2026-04-29 16:31 1.1M
20260429T12Z_MSC_GDPS_Snow-Accum24h_Sfc_LatLon0.15_PT102H.grib2 2026-04-29 16:31 1.5M
20260429T12Z_MSC_GDPS_Snow-Accum3h_Sfc_LatLon0.15_PT102H.grib2 2026-04-29 16:31 1.0M
20260429T12Z_MSC_GDPS_Snow-Accum6h_Sfc_LatLon0.15_PT102H.grib2 2026-04-29 16:31 1.4M
20260429T12Z_MSC_GDPS_Snow-Accum_Sfc_LatLon0.15_PT102H.grib2 2026-04-29 16:31 2.0M
20260429T12Z_MSC_GDPS_SnowDensity_Sfc_LatLon0.15_PT102H.grib2 2026-04-29 16:31 266K
20260429T12Z_MSC_GDPS_SnowDepth_Sfc_LatLon0.15_PT102H.grib2 2026-04-29 16:31 1.7M
20260429T12Z_MSC_GDPS_SoilTemp_DBS-0to10cm_LatLon0.15_PT102H.grib2 2026-04-29 16:31 512K
20260429T12Z_MSC_GDPS_SoilTemp_Sfc_LatLon0.15_PT102H.grib2 2026-04-29 16:31 579K
20260429T12Z_MSC_GDPS_SoilVolumetricIceContent_Sfc_LatLon0.15_PT102H.grib2 2026-04-29 16:31 198K
20260429T12Z_MSC_GDPS_SoilVolumetricWaterContent_DBS-0to10cm_LatLon0.15_PT102H.grib2 2026-04-29 16:31 588K
20260429T12Z_MSC_GDPS_SoilVolumetricWaterContent_DBS-0to1cm_LatLon0.15_PT102H.grib2 2026-04-29 16:31 650K
20260429T12Z_MSC_GDPS_SpecificHumidity_AGL-120m_LatLon0.15_PT102H.grib2 2026-04-29 16:31 1.1M
20260429T12Z_MSC_GDPS_SpecificHumidity_AGL-2m_LatLon0.15_PT102H.grib2 2026-04-29 16:31 1.2M
20260429T12Z_MSC_GDPS_SpecificHumidity_AGL-40m_LatLon0.15_PT102H.grib2 2026-04-29 16:31 1.1M
20260429T12Z_MSC_GDPS_SpecificHumidity_AGL-80m_LatLon0.15_PT102H.grib2 2026-04-29 16:31 1.1M
20260429T12Z_MSC_GDPS_SpecificHumidity_IsbL-0001_LatLon0.15_PT102H.grib2 2026-04-29 16:31 1.2M
20260429T12Z_MSC_GDPS_SpecificHumidity_IsbL-0005_LatLon0.15_PT102H.grib2 2026-04-29 16:31 1.2M
20260429T12Z_MSC_GDPS_SpecificHumidity_IsbL-0010_LatLon0.15_PT102H.grib2 2026-04-29 16:31 1.3M
20260429T12Z_MSC_GDPS_SpecificHumidity_IsbL-0020_LatLon0.15_PT102H.grib2 2026-04-29 16:31 1.3M
20260429T12Z_MSC_GDPS_SpecificHumidity_IsbL-0030_LatLon0.15_PT102H.grib2 2026-04-29 16:31 1.3M
20260429T12Z_MSC_GDPS_SpecificHumidity_IsbL-0050_LatLon0.15_PT102H.grib2 2026-04-29 16:31 1.6M
20260429T12Z_MSC_GDPS_SpecificHumidity_IsbL-0100_LatLon0.15_PT102H.grib2 2026-04-29 16:31 1.3M
20260429T12Z_MSC_GDPS_SpecificHumidity_IsbL-0150_LatLon0.15_PT102H.grib2 2026-04-29 16:31 1.3M
20260429T12Z_MSC_GDPS_SpecificHumidity_IsbL-0175_LatLon0.15_PT102H.grib2 2026-04-29 16:31 1.3M
20260429T12Z_MSC_GDPS_SpecificHumidity_IsbL-0200_LatLon0.15_PT102H.grib2 2026-04-29 16:31 1.3M
20260429T12Z_MSC_GDPS_SpecificHumidity_IsbL-0225_LatLon0.15_PT102H.grib2 2026-04-29 16:31 1.3M
20260429T12Z_MSC_GDPS_SpecificHumidity_IsbL-0250_LatLon0.15_PT102H.grib2 2026-04-29 16:31 1.4M
20260429T12Z_MSC_GDPS_SpecificHumidity_IsbL-0275_LatLon0.15_PT102H.grib2 2026-04-29 16:31 1.3M
20260429T12Z_MSC_GDPS_SpecificHumidity_IsbL-0300_LatLon0.15_PT102H.grib2 2026-04-29 16:31 1.2M
20260429T12Z_MSC_GDPS_SpecificHumidity_IsbL-0350_LatLon0.15_PT102H.grib2 2026-04-29 16:31 1.2M
20260429T12Z_MSC_GDPS_SpecificHumidity_IsbL-0400_LatLon0.15_PT102H.grib2 2026-04-29 16:31 1.5M
20260429T12Z_MSC_GDPS_SpecificHumidity_IsbL-0450_LatLon0.15_PT102H.grib2 2026-04-29 16:31 1.6M
20260429T12Z_MSC_GDPS_SpecificHumidity_IsbL-0500_LatLon0.15_PT102H.grib2 2026-04-29 16:31 1.4M
20260429T12Z_MSC_GDPS_SpecificHumidity_IsbL-0550_LatLon0.15_PT102H.grib2 2026-04-29 16:31 1.6M
20260429T12Z_MSC_GDPS_SpecificHumidity_IsbL-0600_LatLon0.15_PT102H.grib2 2026-04-29 16:31 1.7M
20260429T12Z_MSC_GDPS_SpecificHumidity_IsbL-0650_LatLon0.15_PT102H.grib2 2026-04-29 16:31 1.5M
20260429T12Z_MSC_GDPS_SpecificHumidity_IsbL-0700_LatLon0.15_PT102H.grib2 2026-04-29 16:31 1.6M
20260429T12Z_MSC_GDPS_SpecificHumidity_IsbL-0750_LatLon0.15_PT102H.grib2 2026-04-29 16:31 1.7M
20260429T12Z_MSC_GDPS_SpecificHumidity_IsbL-0800_LatLon0.15_PT102H.grib2 2026-04-29 16:31 1.9M
20260429T12Z_MSC_GDPS_SpecificHumidity_IsbL-0850_LatLon0.15_PT102H.grib2 2026-04-29 16:31 1.9M
20260429T12Z_MSC_GDPS_SpecificHumidity_IsbL-0875_LatLon0.15_PT102H.grib2 2026-04-29 16:31 1.9M
20260429T12Z_MSC_GDPS_SpecificHumidity_IsbL-0900_LatLon0.15_PT102H.grib2 2026-04-29 16:31 1.9M
20260429T12Z_MSC_GDPS_SpecificHumidity_IsbL-0925_LatLon0.15_PT102H.grib2 2026-04-29 16:31 1.6M
20260429T12Z_MSC_GDPS_SpecificHumidity_IsbL-0950_LatLon0.15_PT102H.grib2 2026-04-29 16:31 1.6M
20260429T12Z_MSC_GDPS_SpecificHumidity_IsbL-0970_LatLon0.15_PT102H.grib2 2026-04-29 16:31 1.5M
20260429T12Z_MSC_GDPS_SpecificHumidity_IsbL-0985_LatLon0.15_PT102H.grib2 2026-04-29 16:31 1.5M
20260429T12Z_MSC_GDPS_SpecificHumidity_IsbL-1000_LatLon0.15_PT102H.grib2 2026-04-29 16:31 1.5M
20260429T12Z_MSC_GDPS_SpecificHumidity_IsbL-1015_LatLon0.15_PT102H.grib2 2026-04-29 16:31 1.5M
20260429T12Z_MSC_GDPS_SpecificHumidity_Sfc_LatLon0.15_PT102H.grib2 2026-04-29 16:31 670K
20260429T12Z_MSC_GDPS_Thickness_IsbL-0850to0700_LatLon0.15_PT102H.grib2 2026-04-29 16:31 472K
20260429T12Z_MSC_GDPS_Thickness_IsbL-1000to0500_LatLon0.15_PT102H.grib2 2026-04-29 16:31 373K
20260429T12Z_MSC_GDPS_Thickness_IsbL-1000to0850_LatLon0.15_PT102H.grib2 2026-04-29 16:31 490K
20260429T12Z_MSC_GDPS_TotalCloudCover_Sfc_LatLon0.15_PT102H.grib2 2026-04-29 16:31 823K
20260429T12Z_MSC_GDPS_TotalTotalsIndex_Sfc_LatLon0.15_PT102H.grib2 2026-04-29 16:31 6.2M
20260429T12Z_MSC_GDPS_UVIndex-ClearSky-Max24h_Sfc_LatLon0.15_PT102H.grib2 2026-04-29 16:51 2.2M
20260429T12Z_MSC_GDPS_UVIndex-ClearSky_Sfc_LatLon0.15_PT102H.grib2 2026-04-29 16:51 1.0M
20260429T12Z_MSC_GDPS_UVIndex-Max24h_Sfc_LatLon0.15_PT102H.grib2 2026-04-29 16:51 3.2M
20260429T12Z_MSC_GDPS_UVIndex_Sfc_LatLon0.15_PT102H.grib2 2026-04-29 16:51 1.5M
20260429T12Z_MSC_GDPS_UpwardLongwaveRadiationFlux_NTAtm_LatLon0.15_PT102H.grib2 2026-04-29 16:31 846K
20260429T12Z_MSC_GDPS_VerticalVelocity_IsbL-0200_LatLon0.15_PT102H.grib2 2026-04-29 16:31 944K
20260429T12Z_MSC_GDPS_VerticalVelocity_IsbL-0250_LatLon0.15_PT102H.grib2 2026-04-29 16:31 1.1M
20260429T12Z_MSC_GDPS_VerticalVelocity_IsbL-0500_LatLon0.15_PT102H.grib2 2026-04-29 16:31 1.3M
20260429T12Z_MSC_GDPS_VerticalVelocity_IsbL-0600_LatLon0.15_PT102H.grib2 2026-04-29 16:31 1.1M
20260429T12Z_MSC_GDPS_VerticalVelocity_IsbL-0700_LatLon0.15_PT102H.grib2 2026-04-29 16:31 1.4M
20260429T12Z_MSC_GDPS_VerticalVelocity_IsbL-0850_LatLon0.15_PT102H.grib2 2026-04-29 16:31 1.3M
20260429T12Z_MSC_GDPS_WindChill_Sfc_LatLon0.15_PT102H.grib2 2026-04-29 16:31 5.3M
20260429T12Z_MSC_GDPS_WindDir_AGL-10m_LatLon0.15_PT102H.grib2 2026-04-29 16:31 1.3M
20260429T12Z_MSC_GDPS_WindDir_AGL-120m_LatLon0.15_PT102H.grib2 2026-04-29 16:31 1.4M
20260429T12Z_MSC_GDPS_WindDir_AGL-40m_LatLon0.15_PT102H.grib2 2026-04-29 16:31 1.4M
20260429T12Z_MSC_GDPS_WindDir_AGL-80m_LatLon0.15_PT102H.grib2 2026-04-29 16:31 1.4M
20260429T12Z_MSC_GDPS_WindDir_IsbL-0001_LatLon0.15_PT102H.grib2 2026-04-29 16:31 694K
20260429T12Z_MSC_GDPS_WindDir_IsbL-0005_LatLon0.15_PT102H.grib2 2026-04-29 16:31 821K
20260429T12Z_MSC_GDPS_WindDir_IsbL-0010_LatLon0.15_PT102H.grib2 2026-04-29 16:31 832K
20260429T12Z_MSC_GDPS_WindDir_IsbL-0020_LatLon0.15_PT102H.grib2 2026-04-29 16:31 949K
20260429T12Z_MSC_GDPS_WindDir_IsbL-0030_LatLon0.15_PT102H.grib2 2026-04-29 16:31 943K
20260429T12Z_MSC_GDPS_WindDir_IsbL-0050_LatLon0.15_PT102H.grib2 2026-04-29 16:31 958K
20260429T12Z_MSC_GDPS_WindDir_IsbL-0100_LatLon0.15_PT102H.grib2 2026-04-29 16:31 1.0M
20260429T12Z_MSC_GDPS_WindDir_IsbL-0150_LatLon0.15_PT102H.grib2 2026-04-29 16:31 1.0M
20260429T12Z_MSC_GDPS_WindDir_IsbL-0175_LatLon0.15_PT102H.grib2 2026-04-29 16:31 1.1M
20260429T12Z_MSC_GDPS_WindDir_IsbL-0200_LatLon0.15_PT102H.grib2 2026-04-29 16:31 1.1M
20260429T12Z_MSC_GDPS_WindDir_IsbL-0225_LatLon0.15_PT102H.grib2 2026-04-29 16:31 1.1M
20260429T12Z_MSC_GDPS_WindDir_IsbL-0250_LatLon0.15_PT102H.grib2 2026-04-29 16:31 1.1M
20260429T12Z_MSC_GDPS_WindDir_IsbL-0275_LatLon0.15_PT102H.grib2 2026-04-29 16:31 1.2M
20260429T12Z_MSC_GDPS_WindDir_IsbL-0300_LatLon0.15_PT102H.grib2 2026-04-29 16:31 1.2M
20260429T12Z_MSC_GDPS_WindDir_IsbL-0350_LatLon0.15_PT102H.grib2 2026-04-29 16:31 1.2M
20260429T12Z_MSC_GDPS_WindDir_IsbL-0400_LatLon0.15_PT102H.grib2 2026-04-29 16:31 1.3M
20260429T12Z_MSC_GDPS_WindDir_IsbL-0450_LatLon0.15_PT102H.grib2 2026-04-29 16:31 1.3M
20260429T12Z_MSC_GDPS_WindDir_IsbL-0500_LatLon0.15_PT102H.grib2 2026-04-29 16:31 1.3M
20260429T12Z_MSC_GDPS_WindDir_IsbL-0550_LatLon0.15_PT102H.grib2 2026-04-29 16:31 1.4M
20260429T12Z_MSC_GDPS_WindDir_IsbL-0600_LatLon0.15_PT102H.grib2 2026-04-29 16:31 1.4M
20260429T12Z_MSC_GDPS_WindDir_IsbL-0650_LatLon0.15_PT102H.grib2 2026-04-29 16:31 1.5M
20260429T12Z_MSC_GDPS_WindDir_IsbL-0700_LatLon0.15_PT102H.grib2 2026-04-29 16:31 1.6M
20260429T12Z_MSC_GDPS_WindDir_IsbL-0750_LatLon0.15_PT102H.grib2 2026-04-29 16:31 1.7M
20260429T12Z_MSC_GDPS_WindDir_IsbL-0800_LatLon0.15_PT102H.grib2 2026-04-29 16:31 1.8M
20260429T12Z_MSC_GDPS_WindDir_IsbL-0850_LatLon0.15_PT102H.grib2 2026-04-29 16:31 1.9M
20260429T12Z_MSC_GDPS_WindDir_IsbL-0875_LatLon0.15_PT102H.grib2 2026-04-29 16:31 1.9M
20260429T12Z_MSC_GDPS_WindDir_IsbL-0900_LatLon0.15_PT102H.grib2 2026-04-29 16:31 2.0M
20260429T12Z_MSC_GDPS_WindDir_IsbL-0925_LatLon0.15_PT102H.grib2 2026-04-29 16:31 2.0M
20260429T12Z_MSC_GDPS_WindDir_IsbL-0950_LatLon0.15_PT102H.grib2 2026-04-29 16:31 2.0M
20260429T12Z_MSC_GDPS_WindDir_IsbL-0970_LatLon0.15_PT102H.grib2 2026-04-29 16:31 2.0M
20260429T12Z_MSC_GDPS_WindDir_IsbL-0985_LatLon0.15_PT102H.grib2 2026-04-29 16:31 2.0M
20260429T12Z_MSC_GDPS_WindDir_IsbL-1000_LatLon0.15_PT102H.grib2 2026-04-29 16:31 2.1M
20260429T12Z_MSC_GDPS_WindDir_IsbL-1015_LatLon0.15_PT102H.grib2 2026-04-29 16:31 2.0M
20260429T12Z_MSC_GDPS_WindGust-Max_AGL-10m_LatLon0.15_PT102H.grib2 2026-04-29 16:31 2.2M
20260429T12Z_MSC_GDPS_WindGust-Min_AGL-10m_LatLon0.15_PT102H.grib2 2026-04-29 16:31 2.1M
20260429T12Z_MSC_GDPS_WindGust_AGL-10m_LatLon0.15_PT102H.grib2 2026-04-29 16:31 2.1M
20260429T12Z_MSC_GDPS_WindSpeed_AGL-10m_LatLon0.15_PT102H.grib2 2026-04-29 16:31 1.1M
20260429T12Z_MSC_GDPS_WindSpeed_AGL-120m_LatLon0.15_PT102H.grib2 2026-04-29 16:31 1.2M
20260429T12Z_MSC_GDPS_WindSpeed_AGL-40m_LatLon0.15_PT102H.grib2 2026-04-29 16:31 1.2M
20260429T12Z_MSC_GDPS_WindSpeed_AGL-80m_LatLon0.15_PT102H.grib2 2026-04-29 16:31 1.2M
20260429T12Z_MSC_GDPS_WindSpeed_IsbL-0001_LatLon0.15_PT102H.grib2 2026-04-29 16:31 642K
20260429T12Z_MSC_GDPS_WindSpeed_IsbL-0005_LatLon0.15_PT102H.grib2 2026-04-29 16:31 694K
20260429T12Z_MSC_GDPS_WindSpeed_IsbL-0010_LatLon0.15_PT102H.grib2 2026-04-29 16:31 627K
20260429T12Z_MSC_GDPS_WindSpeed_IsbL-0020_LatLon0.15_PT102H.grib2 2026-04-29 16:31 666K
20260429T12Z_MSC_GDPS_WindSpeed_IsbL-0030_LatLon0.15_PT102H.grib2 2026-04-29 16:31 867K
20260429T12Z_MSC_GDPS_WindSpeed_IsbL-0050_LatLon0.15_PT102H.grib2 2026-04-29 16:31 913K
20260429T12Z_MSC_GDPS_WindSpeed_IsbL-0100_LatLon0.15_PT102H.grib2 2026-04-29 16:31 1.1M
20260429T12Z_MSC_GDPS_WindSpeed_IsbL-0150_LatLon0.15_PT102H.grib2 2026-04-29 16:31 956K
20260429T12Z_MSC_GDPS_WindSpeed_IsbL-0175_LatLon0.15_PT102H.grib2 2026-04-29 16:31 1.0M
20260429T12Z_MSC_GDPS_WindSpeed_IsbL-0200_LatLon0.15_PT102H.grib2 2026-04-29 16:31 1.1M
20260429T12Z_MSC_GDPS_WindSpeed_IsbL-0225_LatLon0.15_PT102H.grib2 2026-04-29 16:31 1.1M
20260429T12Z_MSC_GDPS_WindSpeed_IsbL-0250_LatLon0.15_PT102H.grib2 2026-04-29 16:31 1.1M
20260429T12Z_MSC_GDPS_WindSpeed_IsbL-0275_LatLon0.15_PT102H.grib2 2026-04-29 16:31 1.1M
20260429T12Z_MSC_GDPS_WindSpeed_IsbL-0300_LatLon0.15_PT102H.grib2 2026-04-29 16:31 1.1M
20260429T12Z_MSC_GDPS_WindSpeed_IsbL-0350_LatLon0.15_PT102H.grib2 2026-04-29 16:31 1.1M
20260429T12Z_MSC_GDPS_WindSpeed_IsbL-0400_LatLon0.15_PT102H.grib2 2026-04-29 16:31 1.1M
20260429T12Z_MSC_GDPS_WindSpeed_IsbL-0450_LatLon0.15_PT102H.grib2 2026-04-29 16:31 1.1M
20260429T12Z_MSC_GDPS_WindSpeed_IsbL-0500_LatLon0.15_PT102H.grib2 2026-04-29 16:31 1.1M
20260429T12Z_MSC_GDPS_WindSpeed_IsbL-0550_LatLon0.15_PT102H.grib2 2026-04-29 16:31 1.1M
20260429T12Z_MSC_GDPS_WindSpeed_IsbL-0600_LatLon0.15_PT102H.grib2 2026-04-29 16:31 1.4M
20260429T12Z_MSC_GDPS_WindSpeed_IsbL-0650_LatLon0.15_PT102H.grib2 2026-04-29 16:31 1.5M
20260429T12Z_MSC_GDPS_WindSpeed_IsbL-0700_LatLon0.15_PT102H.grib2 2026-04-29 16:31 1.5M
20260429T12Z_MSC_GDPS_WindSpeed_IsbL-0750_LatLon0.15_PT102H.grib2 2026-04-29 16:31 1.6M
20260429T12Z_MSC_GDPS_WindSpeed_IsbL-0800_LatLon0.15_PT102H.grib2 2026-04-29 16:31 1.7M
20260429T12Z_MSC_GDPS_WindSpeed_IsbL-0850_LatLon0.15_PT102H.grib2 2026-04-29 16:31 1.7M
20260429T12Z_MSC_GDPS_WindSpeed_IsbL-0875_LatLon0.15_PT102H.grib2 2026-04-29 16:31 1.8M
20260429T12Z_MSC_GDPS_WindSpeed_IsbL-0900_LatLon0.15_PT102H.grib2 2026-04-29 16:31 1.8M
20260429T12Z_MSC_GDPS_WindSpeed_IsbL-0925_LatLon0.15_PT102H.grib2 2026-04-29 16:31 1.8M
20260429T12Z_MSC_GDPS_WindSpeed_IsbL-0950_LatLon0.15_PT102H.grib2 2026-04-29 16:31 1.8M
20260429T12Z_MSC_GDPS_WindSpeed_IsbL-0970_LatLon0.15_PT102H.grib2 2026-04-29 16:31 1.9M
20260429T12Z_MSC_GDPS_WindSpeed_IsbL-0985_LatLon0.15_PT102H.grib2 2026-04-29 16:31 1.9M
20260429T12Z_MSC_GDPS_WindSpeed_IsbL-1000_LatLon0.15_PT102H.grib2 2026-04-29 16:31 1.9M
20260429T12Z_MSC_GDPS_WindSpeed_IsbL-1015_LatLon0.15_PT102H.grib2 2026-04-29 16:31 1.8M
20260429T12Z_MSC_GDPS_WindU_AGL-10m_LatLon0.15_PT102H.grib2 2026-04-29 16:31 1.3M
20260429T12Z_MSC_GDPS_WindU_AGL-120m_LatLon0.15_PT102H.grib2 2026-04-29 16:31 1.0M
20260429T12Z_MSC_GDPS_WindU_AGL-40m_LatLon0.15_PT102H.grib2 2026-04-29 16:31 1.0M
20260429T12Z_MSC_GDPS_WindU_AGL-80m_LatLon0.15_PT102H.grib2 2026-04-29 16:31 1.0M
20260429T12Z_MSC_GDPS_WindU_IsbL-0001_LatLon0.15_PT102H.grib2 2026-04-29 16:31 498K
20260429T12Z_MSC_GDPS_WindU_IsbL-0005_LatLon0.15_PT102H.grib2 2026-04-29 16:31 690K
20260429T12Z_MSC_GDPS_WindU_IsbL-0010_LatLon0.15_PT102H.grib2 2026-04-29 16:31 702K
20260429T12Z_MSC_GDPS_WindU_IsbL-0020_LatLon0.15_PT102H.grib2 2026-04-29 16:31 734K
20260429T12Z_MSC_GDPS_WindU_IsbL-0030_LatLon0.15_PT102H.grib2 2026-04-29 16:31 741K
20260429T12Z_MSC_GDPS_WindU_IsbL-0050_LatLon0.15_PT102H.grib2 2026-04-29 16:31 771K
20260429T12Z_MSC_GDPS_WindU_IsbL-0100_LatLon0.15_PT102H.grib2 2026-04-29 16:31 927K
20260429T12Z_MSC_GDPS_WindU_IsbL-0150_LatLon0.15_PT102H.grib2 2026-04-29 16:31 1.0M
20260429T12Z_MSC_GDPS_WindU_IsbL-0175_LatLon0.15_PT102H.grib2 2026-04-29 16:31 1.0M
20260429T12Z_MSC_GDPS_WindU_IsbL-0200_LatLon0.15_PT102H.grib2 2026-04-29 16:31 846K
20260429T12Z_MSC_GDPS_WindU_IsbL-0225_LatLon0.15_PT102H.grib2 2026-04-29 16:31 859K
20260429T12Z_MSC_GDPS_WindU_IsbL-0250_LatLon0.15_PT102H.grib2 2026-04-29 16:31 864K
20260429T12Z_MSC_GDPS_WindU_IsbL-0275_LatLon0.15_PT102H.grib2 2026-04-29 16:31 893K
20260429T12Z_MSC_GDPS_WindU_IsbL-0300_LatLon0.15_PT102H.grib2 2026-04-29 16:31 884K
20260429T12Z_MSC_GDPS_WindU_IsbL-0350_LatLon0.15_PT102H.grib2 2026-04-29 16:31 898K
20260429T12Z_MSC_GDPS_WindU_IsbL-0400_LatLon0.15_PT102H.grib2 2026-04-29 16:31 900K
20260429T12Z_MSC_GDPS_WindU_IsbL-0450_LatLon0.15_PT102H.grib2 2026-04-29 16:31 1.1M
20260429T12Z_MSC_GDPS_WindU_IsbL-0500_LatLon0.15_PT102H.grib2 2026-04-29 16:31 1.1M
20260429T12Z_MSC_GDPS_WindU_IsbL-0550_LatLon0.15_PT102H.grib2 2026-04-29 16:31 1.1M
20260429T12Z_MSC_GDPS_WindU_IsbL-0600_LatLon0.15_PT102H.grib2 2026-04-29 16:31 1.2M
20260429T12Z_MSC_GDPS_WindU_IsbL-0650_LatLon0.15_PT102H.grib2 2026-04-29 16:31 1.2M
20260429T12Z_MSC_GDPS_WindU_IsbL-0700_LatLon0.15_PT102H.grib2 2026-04-29 16:31 1.2M
20260429T12Z_MSC_GDPS_WindU_IsbL-0750_LatLon0.15_PT102H.grib2 2026-04-29 16:31 1.3M
20260429T12Z_MSC_GDPS_WindU_IsbL-0800_LatLon0.15_PT102H.grib2 2026-04-29 16:31 1.4M
20260429T12Z_MSC_GDPS_WindU_IsbL-0850_LatLon0.15_PT102H.grib2 2026-04-29 16:31 1.4M
20260429T12Z_MSC_GDPS_WindU_IsbL-0875_LatLon0.15_PT102H.grib2 2026-04-29 16:31 1.5M
20260429T12Z_MSC_GDPS_WindU_IsbL-0900_LatLon0.15_PT102H.grib2 2026-04-29 16:31 1.5M
20260429T12Z_MSC_GDPS_WindU_IsbL-0925_LatLon0.15_PT102H.grib2 2026-04-29 16:31 1.5M
20260429T12Z_MSC_GDPS_WindU_IsbL-0950_LatLon0.15_PT102H.grib2 2026-04-29 16:31 1.4M
20260429T12Z_MSC_GDPS_WindU_IsbL-0970_LatLon0.15_PT102H.grib2 2026-04-29 16:31 1.4M
20260429T12Z_MSC_GDPS_WindU_IsbL-0985_LatLon0.15_PT102H.grib2 2026-04-29 16:31 1.4M
20260429T12Z_MSC_GDPS_WindU_IsbL-1000_LatLon0.15_PT102H.grib2 2026-04-29 16:31 1.4M
20260429T12Z_MSC_GDPS_WindU_IsbL-1015_LatLon0.15_PT102H.grib2 2026-04-29 16:31 1.4M
20260429T12Z_MSC_GDPS_WindV_AGL-10m_LatLon0.15_PT102H.grib2 2026-04-29 16:31 1.3M
20260429T12Z_MSC_GDPS_WindV_AGL-120m_LatLon0.15_PT102H.grib2 2026-04-29 16:31 1.0M
20260429T12Z_MSC_GDPS_WindV_AGL-40m_LatLon0.15_PT102H.grib2 2026-04-29 16:31 968K
20260429T12Z_MSC_GDPS_WindV_AGL-80m_LatLon0.15_PT102H.grib2 2026-04-29 16:31 1.0M
20260429T12Z_MSC_GDPS_WindV_IsbL-0001_LatLon0.15_PT102H.grib2 2026-04-29 16:31 777K
20260429T12Z_MSC_GDPS_WindV_IsbL-0005_LatLon0.15_PT102H.grib2 2026-04-29 16:31 784K
20260429T12Z_MSC_GDPS_WindV_IsbL-0010_LatLon0.15_PT102H.grib2 2026-04-29 16:31 809K
20260429T12Z_MSC_GDPS_WindV_IsbL-0020_LatLon0.15_PT102H.grib2 2026-04-29 16:31 860K
20260429T12Z_MSC_GDPS_WindV_IsbL-0030_LatLon0.15_PT102H.grib2 2026-04-29 16:31 863K
20260429T12Z_MSC_GDPS_WindV_IsbL-0050_LatLon0.15_PT102H.grib2 2026-04-29 16:31 1.0M
20260429T12Z_MSC_GDPS_WindV_IsbL-0100_LatLon0.15_PT102H.grib2 2026-04-29 16:31 861K
20260429T12Z_MSC_GDPS_WindV_IsbL-0150_LatLon0.15_PT102H.grib2 2026-04-29 16:31 1.0M
20260429T12Z_MSC_GDPS_WindV_IsbL-0175_LatLon0.15_PT102H.grib2 2026-04-29 16:31 1.0M
20260429T12Z_MSC_GDPS_WindV_IsbL-0200_LatLon0.15_PT102H.grib2 2026-04-29 16:31 845K
20260429T12Z_MSC_GDPS_WindV_IsbL-0225_LatLon0.15_PT102H.grib2 2026-04-29 16:31 856K
20260429T12Z_MSC_GDPS_WindV_IsbL-0250_LatLon0.15_PT102H.grib2 2026-04-29 16:31 855K
20260429T12Z_MSC_GDPS_WindV_IsbL-0275_LatLon0.15_PT102H.grib2 2026-04-29 16:31 881K
20260429T12Z_MSC_GDPS_WindV_IsbL-0300_LatLon0.15_PT102H.grib2 2026-04-29 16:31 869K
20260429T12Z_MSC_GDPS_WindV_IsbL-0350_LatLon0.15_PT102H.grib2 2026-04-29 16:31 882K
20260429T12Z_MSC_GDPS_WindV_IsbL-0400_LatLon0.15_PT102H.grib2 2026-04-29 16:31 884K
20260429T12Z_MSC_GDPS_WindV_IsbL-0450_LatLon0.15_PT102H.grib2 2026-04-29 16:31 885K
20260429T12Z_MSC_GDPS_WindV_IsbL-0500_LatLon0.15_PT102H.grib2 2026-04-29 16:31 1.1M
20260429T12Z_MSC_GDPS_WindV_IsbL-0550_LatLon0.15_PT102H.grib2 2026-04-29 16:31 1.1M
20260429T12Z_MSC_GDPS_WindV_IsbL-0600_LatLon0.15_PT102H.grib2 2026-04-29 16:31 1.1M
20260429T12Z_MSC_GDPS_WindV_IsbL-0650_LatLon0.15_PT102H.grib2 2026-04-29 16:31 1.2M
20260429T12Z_MSC_GDPS_WindV_IsbL-0700_LatLon0.15_PT102H.grib2 2026-04-29 16:31 1.2M
20260429T12Z_MSC_GDPS_WindV_IsbL-0750_LatLon0.15_PT102H.grib2 2026-04-29 16:31 1.3M
20260429T12Z_MSC_GDPS_WindV_IsbL-0800_LatLon0.15_PT102H.grib2 2026-04-29 16:31 1.3M
20260429T12Z_MSC_GDPS_WindV_IsbL-0850_LatLon0.15_PT102H.grib2 2026-04-29 16:31 1.4M
20260429T12Z_MSC_GDPS_WindV_IsbL-0875_LatLon0.15_PT102H.grib2 2026-04-29 16:31 1.4M
20260429T12Z_MSC_GDPS_WindV_IsbL-0900_LatLon0.15_PT102H.grib2 2026-04-29 16:31 1.5M
20260429T12Z_MSC_GDPS_WindV_IsbL-0925_LatLon0.15_PT102H.grib2 2026-04-29 16:31 1.5M
20260429T12Z_MSC_GDPS_WindV_IsbL-0950_LatLon0.15_PT102H.grib2 2026-04-29 16:31 1.4M
20260429T12Z_MSC_GDPS_WindV_IsbL-0970_LatLon0.15_PT102H.grib2 2026-04-29 16:31 1.4M
20260429T12Z_MSC_GDPS_WindV_IsbL-0985_LatLon0.15_PT102H.grib2 2026-04-29 16:31 1.4M
20260429T12Z_MSC_GDPS_WindV_IsbL-1000_LatLon0.15_PT102H.grib2 2026-04-29 16:31 1.4M
20260429T12Z_MSC_GDPS_WindV_IsbL-1015_LatLon0.15_PT102H.grib2 2026-04-29 16:31 1.3M